840  
ASUS43 KMPX 241910  
RWRMN  
WEATHER ROUNDUP FOR MINNESOTA  
NATIONAL WEATHER SERVICE TWIN CITIES/CHANHASSEN MN  
200 PM CDT SAT JUN 24 2017  
 
NOTE: "FAIR" INDICATES FEW OR NO CLOUDS BELOW 12,000 FEET WITH NO  
SIGNIFICANT WEATHER AND/OR S TO VISIBILITY
. N/A MEANS  
CURRENT SKY AND/OR WEATHER CONDITIONS ARE NOT AVAILABLE.  
 
MNZ060>063-068>070-242000-  
TWIN CITIES METRO  
 
CITY SKY/WX TMP DP RH WIND PRES REMARKS
 
TWIN CITIES MOSUNNY 66 40 38 W23G35 30.00F  
ST PAUL MOSUNNY 65 41 41 W20G31 30.00F  
CRYSTAL PTSUNNY 66 40 38 W12G23 29.99F  
BLAINE PTSUNNY 66 43 42 W15 29.99F  
LAKEVILLE CLOUDY 61 46 59 W7 30.03F  
EDEN PRAIRIE CLOUDY 66 44 45 W18G28 30.01F  
SOUTH ST PAUL MOSUNNY 65 41 41 W21G29 30.00F  
LAKE ELMO FAIR 64 45 48 W13G20 30.01S  

 
MNZ001>005-007-008-013>017-022>024-027-028-242000-  
NORTHWEST MINNESOTA  
 
CITY SKY/WX TMP DP RH WIND PRES REMARKS
 
BEMIDJI PTSUNNY 60 42 52 NW17 29.99S  
HALLOCK DRIZZLE 54 52 94 NW20G28 30.01R  
ROSEAU PTSUNNY 59 52 77 W8 29.98R  
WARROAD PTSUNNY 57 52 82 SW3 29.98S  
THIEF RVR FALL LGT RAIN 54 52 94 W9 30.02S  
CROOKSTON MIX PCPN 54 54 100 NW14 30.04R  
FOSSTON CLOUDY 55 46 71 W14G20 30.03R  
DETROIT LAKES PTSUNNY 59 45 58 NW18G24 30.05R  
MOORHEAD PTSUNNY 59 45 58 NW14G24 30.06S  
PARK RAPIDS PTSUNNY 60 46 59 NW17 30.01R  
MAHNOMEN CLOUDY 57 46 66 W16G26 30.03R  

 
MNZ006-009>011-018-025>026-242000-  
NORTH CENTRAL MINNESOTA  
 
CITY SKY/WX TMP DP RH WIND PRES REMARKS
 
BAUDETTE MOSUNNY 61 50 67 W10 29.96S  
FLAG ISLAND CLOUDY 55 48 76 NW9 29.96R  
INTL FALLS CLOUDY 61 46 57 NW8G17 29.93S  
WASKISH CLOUDY 61 46 59 W9 29.97R  
BIG FORK SUNNY 61 52 72 W7 29.95F  
LONGVILLE MOSUNNY 61 45 55 NW10G17 29.98S  
GRAND RAPIDS CLOUDY 61 45 55 NW10 29.98S  
CRANE LAKE CLOUDY 59 46 63 NW5 29.94R  
ORR PTSUNNY 61 46 59 NW8 29.91S  
COOK CLOUDY 57 48 72 W7 29.95S  
WALKER CLOUDY 55 46 71 W12G20 30.00R  

 
MNZ012-019>021-037-242000-  
NORTHEAST MINNESOTA  
 
CITY SKY/WX TMP DP RH WIND PRES REMARKS
 
DULUTH CLOUDY 60 46 59 W12G20 29.94S  
ELY CLOUDY 57 46 67 W12G17 29.91S  
HIBBING LGT RAIN 55 44 66 W9 29.95R  
EVELETH CLOUDY 60 38 44 W9 29.95S  
DULUTH HARBOR PTSUNNY 64 46 52 NW16 29.94S  
TWO HARBORS CLOUDY 64 52 63 W8 29.90S  
SILVER BAY CLOUDY 61 48 63 W7 29.89S  
GRAND MARAIS N/A 54 54 100 SW3 29.88S  
G MARAIS ARPRT RAIN 52 48 87 CALM 29.90R  

 
MNZ029>031-032-039>041-046>048-054>057-064-242000-  
WEST CENTRAL MINNESOTA  
 
CITY SKY/WX TMP DP RH WIND PRES REMARKS
 
FERGUS FALLS LGT RAIN 54 48 82 NW9 30.06R  
WHEATON PTSUNNY 63 41 45 NW17 30.09S  
MORRIS MOSUNNY 63 45 51 N16 30.06R  
ALEXANDRIA MOSUNNY 61 45 55 NW18G24 30.05S  
ELBOW LAKE RAIN 53 48 81 W20G30 30.08R  
WADENA LGT RAIN 54 46 76 NW8 30.03R  
GLENWOOD MOSUNNY 59 46 63 NW16 30.05S  
APPLETON PTSUNNY 63 37 39 NW20G25 30.07R  
BENSON PTSUNNY 63 43 48 N18G25 30.08R  
ORTONVILLE PTSUNNY 63 41 45 NW18G24 30.09R  
MADISON PTSUNNY 66 45 45 NW17G29 30.09R  
WILLMAR FAIR 61 45 55 NW17G23 30.07R  

 
MNZ033>034-036-042>043-049>051-058-059-242000-  
CENTRAL MINNESOTA  
 
CITY SKY/WX TMP DP RH WIND PRES REMARKS
 
ST CLOUD CLOUDY 61 42 49 NW18G30 30.02S  
SAUK CENTRE CLOUDY 57 47 69 NW13 30.04S  
PAYNESVILLE CLOUDY 56 47 71 NW13G18 30.05F  
AITKIN MOSUNNY 59 43 55 W7 29.96F  
PINE RIVER CLOUDY 57 46 67 NW14G22 30.04R  
BRAINERD CLOUDY 61 43 51 W10 30.00R  
STAPLES PTSUNNY 59 43 55 NW16 30.02R  
LONG PRAIRIE PTSUNNY 55 46 71 SW12G20 30.04F  
LITTLE FALLS PTSUNNY 57 43 58 W10 30.01F  
LITCHFIELD CLOUDY 61 46 59 NW15G24 30.05R  
BUFFALO TSTM 51 44 75 SW6 30.05R  
MAPLE LAKE CLOUDY 56 50 79 W9 30.05R  
HUTCHINSON TSTM 54 49 83 NW7 30.06R  

 
MNZ037-044-045-052-053-242000-  
EAST CENTRAL MINNESOTA  
 
CITY SKY/WX TMP DP RH WIND PRES REMARKS
 
PRINCETON CLOUDY 63 43 48 W17G24 30.00R  
MORA CLOUDY 61 41 48 W16 30.00F  
CAMBRIDGE CLOUDY 64 46 52 W10 29.97F  
RUSH CITY HVY RAIN 61 45 55 NW7G16 29.99S  
MOOSE LAKE CLOUDY 61 43 51 NW16 29.96R  
HINCKLEY CLOUDY 61 41 48 W10G21 29.98R  
CLOQUET PTSUNNY 61 43 51 W13G21 29.96S  
MCGREGOR MOSUNNY 63 43 48 W12G20 29.98R  

 
MNZ071>073-080-081-089-090-097-098-242000-  
SOUTHWEST MINNESOTA  
 
CITY SKY/WX TMP DP RH WIND PRES REMARKS
 
MONTEVIDEO PTSUNNY 64 43 45 N17G25 30.08R  
GRANITE FALLS PTSUNNY 65 42 43 NW23G30 30.09S  
CANBY PTSUNNY 65 40 39 NW17G25 30.11R  
MARSHALL PTSUNNY 62 41 46 NW17G29 30.09R  
REDWOOD FALLS MOSUNNY 67 44 43 W18G26 30.05S  
OLIVIA CLOUDY 63 41 45 NW21G31 30.05R  
PIPESTONE MOSUNNY 64 39 39 NW23G35 30.12R  
WINDOM MOSUNNY 68 39 34 NW17G31 30.06R  
WORTHINGTON MOSUNNY 67 40 37 NW29G41 30.08S  
JACKSON PTSUNNY 68 37 32 W28G35 30.06S  
TRACY PTSUNNY 65 44 45 NW18G32 30.09R  
SLAYTON MOSUNNY 65 18 16 NW31G41 30.08S HAZE  

 
MNZ065>067-074>077-082>085-091>093-242000-  
SOUTH CENTRAL MINNESOTA  
 
CITY SKY/WX TMP DP RH WIND PRES REMARKS
 
NEW ULM RAIN 61 46 59 NW20G29 30.05R  
ST JAMES SUNNY 66 45 45 W15 30.05S  
FAIRMONT CLOUDY 69 42 37 W23G35 30.04F  
GLENCOE PTSUNNY 62 47 58 W20G25 30.04R THUNDER  
FARIBAULT CLOUDY 64 45 48 W9 30.04F  
OWATONNA MIX PCPN 63 46 55 N8 30.04F  
WASECA CLOUDY 63 43 48 W15G24 30.06S  
ALBERT LEA RAIN 63 43 48 SW9G16 30.06S  

 
MNZ078>079-086>088-094>096-242000-  
SOUTHEAST MINNESOTA  
 
CITY SKY/WX TMP DP RH WIND PRES REMARKS
 
ROCHESTER PTSUNNY 64 44 48 W15G23 30.05F  
RED WING CLOUDY 64 36 34 W13G23 30.01F  
STANTON CLOUDY 64 44 47 W9 30.02F  
DODGE CENTER MOSUNNY 64 45 48 NW10G18 30.04F  
WINONA PTSUNNY 66 43 42 NW14G20 30.03S  
AUSTIN PTSUNNY 66 43 42 W12G20 30.04F  
PRESTON CLOUDY 62 43 50 W16G23 30.06S  

 
ABBREVIATIONS USED IN REMARKS  
TC - TEMPERATURES IN CELSIUS  
WCI - WIND CHILL INDEX  
HX - HEAT INDEX  
VSB - VISIBILITY  

 
 
 
CLICK HERE TO GO TO PREVIOUS BULLETINS.

The Nexlab MN Page Main Text Page